Other Surface Observations
Issued by NWS

Home | Current Version | Previous Version | Text Only | Print | Product List | Glossary On
Versions: 1 2 3 4 5 6 7 8 9 10 11 12 13 14 15 16 17 18 19 20 21 22 23 24 25 26 27 28 29 30 31 32 33 34 35 36 37 38 39 40 41 42 43 44 45 46 47 48 49 50
000
SXUS52 KTAE 261619
OSOTAE
OSOTAE
North Florida/South Alabama/Southwest Georgia Weather Roundup
National Weather Service Tallahassee Florida
1200 PM EDT THU MAY 26 2016

Note: "fair" indicates few or no clouds below 12,000 feet with no
significant weather and/or obstructions to visibility.

!FLZ017-115-028-034-025-261700
...North Florida...

CITY           SKY/WX    TMP DP  RH WIND       PRES   REMARKS
TALLAHASSEE    PTSUNNY   86  63  45 S8        30.18S
APALACHICOLA   PTSUNNY   81  70  69 SE9       30.17F
PERRY          SUNNY     83  60  45 SE3       30.19S
CROSS CITY       N/A     85  60  42 E6        30.17F
JACKSONVILLE   MOSUNNY   83  62  49 E8        30.18S
$$

!FLZ112-006-005-002-011-261700
...Florida Panhandle...

CITY           SKY/WX    TMP DP  RH WIND       PRES   REMARKS
MARIANNA       SUNNY     84  67  56 S7        30.16S
BONIFAY        NOT AVBL
PANAMA CITY NW FAIR      82  70  66 SE9       30.16R
TYNDALL AFB    SUNNY     83  69  62 S14       30.16S
TYND DRONE APT FAIR      83  69  62 S13       30.16S
DE FUNIAK SPR  FAIR      81  65  58 S8        30.17S
EGLIN AFB      PTSUNNY   82  67  62 S13       30.16R
DESTIN         PTSUNNY   83  73  72 SE10      30.17R
HURLBURT       PTSUNNY   82  69  63 SE13      30.15R
CRESTVIEW      PTSUNNY   83  67  58 VRB6      30.17F
PENSACOLA      CLOUDY    83  71  67 SE12      30.15F
$$

!ALZ063-066-261700
...South Alabama...

CITY           SKY/WX    TMP DP  RH WIND       PRES   REMARKS
DOTHAN         MOSUNNY   85  64  49 S10       30.20F
OZARK CAIRNS   PTSUNNY   82  67  60 S7        30.16F
FT RUCKER HELI NOT AVBL
RUCKER HELI 3  FAIR      82  66  58 S8        30.18S
RUCKER HELI 2  NOT AVBL
FLORALA APT    PTSUNNY   82  68  62 S9        30.17F
ANDALUSIA      CLOUDY    80  69  69 E5        30.17R
TROY           MOSUNNY   83  68  60 S9        30.18S
EUFALA         FAIR      86  63  45 SE9       30.17S
MOBILE         PTSUNNY   83  69  62 E6        30.15S
$$

!GAZ120>161-261700
...Southwest and South Central Georgia...

CITY           SKY/WX    TMP DP  RH WIND       PRES   REMARKS
THOMASVILLE    FAIR      82  59  44 SE5       30.20F
BAINBRIDGE     SUNNY     84  64  51 SE6       30.18F
MOODY AFB      MOSUNNY   83  59  42 VRB1      30.18F
VALDOSTA       SUNNY     82  59  45 S3        30.20R
MOULTRIE       SUNNY     82  55  39 SE5       30.20F
BLAKELY        SUNNY     86  68  54 CALM      30.19S
ALBANY         SUNNY     84  61  45 E3        30.21S
TIFTON         FAIR      82  57  41 SW5       30.19F
FITZGERALD     FAIR      84  56  38 CALM      30.23S
CORDELE        FAIR      85  62  45 SW5       30.21S
AMERICUS       FAIR      82  61  47 SE5       30.21F
HOMERVILLE     FAIR      82  63  51 E5        30.20S
$$

!GMZ750-755-770-775-261700
...Coastal and Buoy Obs...

STATION/POSITION TIME  TEMP    WIND        PRES    VSBY  WAVE
                       AIR SEA DIR/SP/G                  HT/PER
                 (UTC) (F)     (DEG/KT/KT) (MB)    (MI)  (FT/S)
KEATON BEACH     1600   77     210/  8/ 10 1021.9R
CEDAR KEY        1600   76     160/  4/  5 1022.0F
C TOWER          1600   76     140/  9/  9 1022.1F
APALACHICOLA BUO 1550   77 78  120/ 10/ 12 1020.9F         3/ 6
PANAMA CITY BUOY 1550   80 80  140/ 10/ 14 1021.0R         2/ 4
MOBILE BUOY      1600   78 79  120/  8/ 10 1020.0F
ORANGE BCH AL BU 1550   78 80  120/ 10/ 12 1020.0F         2/ 5
$$




USA.gov is the U.S. government's official web portal to all federal, state and local government web resources and services.